Flag for United Arab Emirates Weather past 2 weeks in Dubai, Dubai, United Arab Emirates

Now
100 °F

Clear.


Feels Like: 123 °F
Forecast: 90 / 104 °F
Wind: 17 mph from North

Location: Dubai International Airport

Current Time: Aug 22, 2014 at 2:07:29 PM

Latest Report: Aug 22, 2014 at 1:00 PM


Visibility: 5 mi

Pressure: 29.53 "Hg

Humidity: 53%

Dew point: 81 °F

Location of DubaiLocation

Historic Weather in Dubai — Graph

°F

Dubai temperature yesterday

Maximum temperature yesterday: 99 °F (at 10:00 AM)
Minimum temperature yesterday: 90 °F (at 6:00 AM)
Average temperature yesterday: 95 °F

Past Weeks' High & Low Weather Summary

 TemperatureHumidityPressure
High115 °F (Aug 17, 2:00 PM)89% (Aug 9, 5:00 AM)29.77 "Hg (Aug 9, 5:00 AM)
Low88 °F (Aug 9, 5:00 AM)15% (Aug 17, 7:00 PM)29.36 "Hg (Aug 8, 4:00 PM)
Average98 °F50%29.52 "Hg
* Reported Aug 7 1:00 PM — Aug 22 1:00 PM, Dubai, Weather by CustomWeather, © 2014

Note: Actual official high and low records may vary slightly from our data, if they occured in-between our weather recording intervals... More about our weather records

Advertising

Dubai weather history for previous 24 hours

 ConditionsComfort  
Time TempWeatherWind HumidityBarometerVisibility
1:00 PM
Aug 22
100 °FClear.17 mph53%29.53 "Hg5 mi
12:00 PM106 °FSunny.5 mph34%29.53 "Hg10 mi
11:00 AM102 °FClear.9 mph42%29.56 "Hg5 mi
10:00 AM99 °FClear.5 mph53%29.56 "Hg5 mi
9:00 AM95 °FClear.7 mph63%29.56 "Hg4 mi
8:00 AM91 °FHaze.7 mph80%29.56 "Hg3 mi
7:00 AM90 °FHaze.8 mph89%29.53 "Hg2 mi
6:00 AM90 °FHaze.7 mph89%29.53 "Hg3 mi
5:00 AM91 °FPassing clouds.10 mph84%29.53 "Hg4 mi
4:00 AM91 °FClear.9 mph80%29.50 "Hg5 mi
3:00 AM93 °FClear.6 mph63%29.50 "Hg6 mi
2:00 AM91 °FClear.10 mph71%29.47 "Hg5 mi
1:00 AM91 °FClear.10 mph75%29.47 "Hg5 mi
12:00 AM91 °FClear.10 mph80%29.50 "Hg5 mi
11:00 PM
Aug 21
93 °FClear.7 mph71%29.53 "Hg5 mi
10:00 PM93 °FClear.3 mph75%29.56 "Hg5 mi
9:00 PM93 °FClear.3 mph75%29.56 "Hg5 mi
8:00 PM93 °FPassing clouds.15 mph75%29.59 "Hg5 mi
7:00 PM95 °FClear.10 mph67%29.56 "Hg5 mi
6:00 PM97 °FClear.8 mph60%29.53 "Hg5 mi
5:00 PM97 °FClear.12 mph63%29.56 "Hg5 mi
4:00 PM97 °FClear.13 mph56%29.56 "Hg5 mi
3:00 PM99 °FClear.12 mph57%29.56 "Hg5 mi
2:00 PM99 °FClear.13 mph57%29.59 "Hg5 mi
Weather by CustomWeather, © 2014

See weather overviewHow to use our weather pages